Regional Weather Roundup
Issued by NWS Goodland, KS

Home | Current Version | Previous Version | Text Only | Print | Product List | Glossary Off
Versions: 1 2 3 4 5 6 7 8 9 10 11 12 13 14 15 16 17 18 19 20 21 22 23 24 25 26 27 28 29 30 31 32 33 34 35 36 37 38 39 40 41 42 43 44 45 46 47 48 49 50

000
ASUS43 KGLD 191808
RWRGLD

GOODLAND FORECAST AREA HOURLY WEATHER ROUNDUP
NATIONAL WEATHER SERVICE GOODLAND KS
1100 AM MST MON FEB 19 2018

...OFFICIAL OBSERVATIONS...

CITY           SKY/WX    TMP DP  RH WIND       PRES   REMARKS
GOODLAND KS    LGT SNOW  16  11  80 N12       29.78R WCI   3
HILL CITY KS   CLOUDY    21  14  74 N16       29.86S WCI   7
IMPERIAL NEB   FLURRIES  13   8  81 N15       29.82F WCI  -3
MCCOOK NEB     LGT SNOW  16  12  84 N13       29.85S FOG     WCI   2
AKRON CO       LGT SNOW  10   7  87 NE9       29.71S FOG
BURLINGTON CO  LGT SNOW  15  11  83 N9        29.75F FOG
LIMON CO       FLURRIES  14  11  87 E3        29.65F
$$

...UNOFFICIAL OBSERVATIONS...

CITY           SKY/WX    TMP DP  RH WIND       PRES   REMARKS
COLBY KS       LGT SNOW  19  16  86 N10       29.82S WCI   8
LENORA KS        N/A     14  32 100 N8          N/A
NORTON KS      FLURRIES  18  10  73 N12       29.84  WCI   5
SHARON SPRINGS   N/A     20  14  77 NE7         N/A
TRENTON NEB      N/A     14  32 100 N8          N/A
KIT CARSON CO    N/A     16  10  78 CALM        N/A
$$




USA.gov is the U.S. government's official web portal to all federal, state and local government web resources and services.